This is the latest recevied weather packets stored in our database for station/object EA6AMI-5. If no packets are shown the sender has not sent any weather packets the latest 10 day(s).
| Time | Temp. | Humidity | Pressure | Rain* | Wind** | Luminosity | Snow |
|---|---|---|---|---|---|---|---|
| 1777841643 | 17.22° C | 84% | 1014.3 hPa | 0 mm | - | 0 W/m² | - |
| 1777841103 | 17.22° C | 84% | 1014.1 hPa | 0 mm | - | 0 W/m² | - |
| 1777840564 | 17.78° C | 84% | 1014.2 hPa | 0 mm | - | 0 W/m² | - |
| 1777840023 | 17.78° C | 85% | 1013.9 hPa | 0 mm | - | 0 W/m² | - |
| 1777839484 | 17.78° C | 84% | 1014.2 hPa | 0 mm | - | 0 W/m² | - |
| 1777838943 | 17.78° C | 84% | 1014.5 hPa | 0 mm | - | 0 W/m² | - |
| 1777838403 | 17.78° C | 83% | 1014.3 hPa | 0 mm | - | 0 W/m² | - |
| 1777838043 | 17.78° C | 83% | 1013.9 hPa | 0 mm | - | 0 W/m² | - |
| 1777837504 | 17.78° C | 83% | 1013.8 hPa | 0 mm | - | 0 W/m² | - |
| 1777836963 | 18.33° C | 82% | 1014.1 hPa | 0 mm | - | 0 W/m² | - |
| 1777836424 | 18.33° C | 81% | 1014.1 hPa | 0 mm | - | 0 W/m² | - |
| 1777835883 | 18.33° C | 81% | 1014.1 hPa | 0 mm | - | 0 W/m² | - |
| 1777835343 | 18.33° C | 80% | 1014.1 hPa | 0 mm | - | 0 W/m² | - |
| 1777834804 | 18.33° C | 79% | 1014.1 hPa | 0 mm | - | 0 W/m² | - |
| 1777834443 | 18.33° C | 78% | 1014.4 hPa | 0 mm | - | 0 W/m² | - |
| 1777833903 | 18.33° C | 77% | 1014.1 hPa | 0 mm | - | 0 W/m² | - |
| 1777833363 | 18.33° C | 77% | 1014 hPa | 0 mm | - | 1 W/m² | - |
| 1777832823 | 18.33° C | 77% | 1014.2 hPa | 0 mm | - | 3 W/m² | - |
| 1777832283 | 18.89° C | 77% | 1014.3 hPa | 0 mm | - | 11 W/m² | - |
| 1777831743 | 18.89° C | 76% | 1014.1 hPa | 0 mm | - | 18 W/m² | - |
| 1777831204 | 18.89° C | 75% | 1014.1 hPa | 0 mm | - | 21 W/m² | - |
| 1777830843 | 19.44° C | 75% | 1014.1 hPa | 0 mm | - | 22 W/m² | - |
| 1777830304 | 19.44° C | 75% | 1014 hPa | 0 mm | - | 39 W/m² | - |
| 1777829763 | 19.44° C | 74% | 1013.9 hPa | 0 mm | - | 43 W/m² | - |
| 1777829223 | 19.44° C | 74% | 1013.9 hPa | 0 mm | - | 56 W/m² | - |
* Rain latest hour (hover to see other rain measurements)
** Current wind speed in m/s (hover to see current wind gust speed)